This is the latest recevied weather packets stored in our database for station/object OK2ZAW-23. If no packets are shown the sender has not sent any weather packets the latest 10 day(s).
| Time | Temp. | Humidity | Pressure | Rain* | Wind** | Luminosity | Snow |
|---|---|---|---|---|---|---|---|
| 1777117065 | 16.11° C | 39% | 1011.6 hPa | - | - | 335 W/m² | - |
| 1777116437 | 16.11° C | 41% | 1011.7 hPa | - | - | 335 W/m² | - |
| 1777114868 | 15.56° C | 44% | 1011.9 hPa | - | - | 336 W/m² | - |
| 1777114555 | 15.56° C | 47% | 1012 hPa | - | - | 336 W/m² | - |
| 1777114241 | 15.56° C | 47% | 1012.1 hPa | - | - | 335 W/m² | - |
| 1777113614 | 15° C | 47% | 1012 hPa | - | - | 335 W/m² | - |
| 1777112987 | 14.44° C | 49% | 1012.1 hPa | - | - | 335 W/m² | - |
| 1777112046 | 13.89° C | 55% | 1012.1 hPa | - | - | 336 W/m² | - |
| 1777111419 | 13.89° C | 56% | 1012.2 hPa | - | - | 335 W/m² | - |
| 1777111105 | 13.89° C | 56% | 1012.2 hPa | - | - | 336 W/m² | - |
| 1777110791 | 13.33° C | 57% | 1012.3 hPa | - | - | 335 W/m² | - |
| 1777109852 | 13.33° C | 57% | 1012.4 hPa | - | - | 335 W/m² | - |
| 1777109225 | 12.78° C | 63% | 1012.3 hPa | - | - | 335 W/m² | - |
| 1777108911 | 12.78° C | 63% | 1012.3 hPa | - | - | 335 W/m² | - |
| 1777107970 | 12.22° C | 66% | 1012.3 hPa | - | - | 335 W/m² | - |
| 1777107344 | 12.22° C | 66% | 1012.5 hPa | - | - | 335 W/m² | - |
| 1777107030 | 11.67° C | 67% | 1012.4 hPa | - | - | 335 W/m² | - |
| 1777106090 | 11.67° C | 71% | 1012.4 hPa | - | - | 335 W/m² | - |
| 1777105777 | 11.11° C | 71% | 1012.5 hPa | - | - | 335 W/m² | - |
| 1777105464 | 11.11° C | 70% | 1012.4 hPa | - | - | 335 W/m² | - |
| 1777105150 | 11.11° C | 72% | 1012.4 hPa | - | - | 335 W/m² | - |
| 1777103585 | 10° C | 76% | 1012.5 hPa | - | - | 335 W/m² | - |
| 1777102331 | 9.44° C | 82% | 1012.5 hPa | - | - | 335 W/m² | - |
| 1777101705 | 8.89° C | 87% | 1012.6 hPa | - | - | 335 W/m² | - |
| 1777101079 | 8.33° C | 91% | 1012.6 hPa | - | - | 335 W/m² | - |
* Rain since midnight (hover to see other rain measurements)
** Current wind speed in m/s (hover to see current wind gust speed)